contact:dominique.lefevre@mio.osupytheas.fr, maurice.libes@osupytheas.fr, didier.mallarino@osupytheas.fr
Project:EMSO http://www.emso-fr.org/EMSO-France
Depth: 2436.0 m
Title:EMSO Ligure Ouest : Data MII capteur MICROCAT
DateTime_Computer,Latitude,Longitude,Temperature,Conductivity,Pressure,DateTime_Instrument
DateTime_Computer,Latitude,Longitude,degC,S m-1,dbar,DateTime_Instrument
2017-10-09T00:00:45Z,42.805,6.029,13.2939,4.59969,2472.024,2017-10-09T02:02:09Z
2017-10-09T00:02:20Z,42.805,6.029,13.2940,4.59968,2471.987,2017-10-09T02:03:44Z
2017-10-09T00:03:55Z,42.805,6.029,13.2940,4.59968,2471.987,2017-10-09T02:05:19Z
2017-10-09T00:05:30Z,42.805,6.029,13.2935,4.59967,2472.002,2017-10-09T02:06:54Z
2017-10-09T00:07:05Z,42.805,6.029,13.2939,4.59967,2472.01,2017-10-09T02:08:29Z
2017-10-09T00:08:40Z,42.805,6.029,13.2939,4.59969,2472.01,2017-10-09T02:10:04Z
2017-10-09T00:10:14Z,42.805,6.029,13.2940,4.59967,2471.964,2017-10-09T02:11:38Z
2017-10-09T00:11:49Z,42.805,6.029,13.2940,4.59968,2472.002,2017-10-09T02:13:13Z
2017-10-09T00:13:24Z,42.805,6.029,13.2940,4.59968,2472.002,2017-10-09T02:14:48Z
2017-10-09T00:14:59Z,42.805,6.029,13.2938,4.59967,2472.002,2017-10-09T02:16:23Z
2017-10-09T00:16:34Z,42.805,6.029,13.2939,4.59966,2471.979,2017-10-09T02:17:58Z
2017-10-09T00:18:08Z,42.805,6.029,13.2935,4.59964,2472.002,2017-10-09T02:19:33Z
2017-10-09T00:19:43Z,42.805,6.029,13.2936,4.59964,2471.987,2017-10-09T02:21:07Z
2017-10-09T00:21:18Z,42.805,6.029,13.2938,4.59964,2471.987,2017-10-09T02:22:42Z
2017-10-09T00:22:53Z,42.805,6.029,13.2939,4.59964,2471.964,2017-10-09T02:24:17Z
2017-10-09T00:24:28Z,42.805,6.029,13.2936,4.59964,2471.979,2017-10-09T02:25:52Z
2017-10-09T00:26:03Z,42.805,6.029,13.2939,4.59965,2471.979,2017-10-09T02:27:27Z
2017-10-09T00:27:37Z,42.805,6.029,13.2939,4.59965,2471.979,2017-10-09T02:29:02Z
2017-10-09T00:29:12Z,42.805,6.029,13.2941,4.59964,2471.957,2017-10-09T02:30:36Z
2017-10-09T00:30:47Z,42.805,6.029,13.2940,4.59967,2471.979,2017-10-09T02:32:11Z
2017-10-09T00:32:22Z,42.805,6.029,13.2940,4.59966,2471.979,2017-10-09T02:33:46Z
2017-10-09T00:33:57Z,42.805,6.029,13.2937,4.59967,2471.957,2017-10-09T02:35:21Z
2017-10-09T00:35:32Z,42.805,6.029,13.2934,4.59969,2471.979,2017-10-09T02:36:56Z
2017-10-09T00:37:06Z,42.805,6.029,13.2934,4.59968,2471.964,2017-10-09T02:38:31Z
2017-10-09T00:38:41Z,42.805,6.029,13.2936,4.59969,2471.964,2017-10-09T02:40:05Z
2017-10-09T00:40:16Z,42.805,6.029,13.2939,4.59967,2471.971,2017-10-09T02:41:40Z
2017-10-09T00:41:51Z,42.805,6.029,13.2934,4.59966,2471.957,2017-10-09T02:43:15Z
2017-10-09T00:43:26Z,42.805,6.029,13.2937,4.59964,2471.964,2017-10-09T02:44:50Z
2017-10-09T00:45:01Z,42.805,6.029,13.2940,4.59966,2471.979,2017-10-09T02:46:25Z
2017-10-09T00:46:35Z,42.805,6.029,13.2941,4.59965,2471.979,2017-10-09T02:48:00Z
2017-10-09T00:48:10Z,42.805,6.029,13.2943,4.59967,2471.957,2017-10-09T02:49:34Z
2017-10-09T00:49:45Z,42.805,6.029,13.2935,4.59964,2471.964,2017-10-09T02:51:09Z
2017-10-09T00:51:20Z,42.805,6.029,13.2941,4.59965,2471.942,2017-10-09T02:52:44Z
2017-10-09T00:52:55Z,42.805,6.029,13.2944,4.59968,2471.979,2017-10-09T02:54:19Z
2017-10-09T00:54:30Z,42.805,6.029,13.2939,4.59967,2471.957,2017-10-09T02:55:54Z
2017-10-09T00:56:04Z,42.805,6.029,13.2940,4.59967,2471.957,2017-10-09T02:57:29Z
2017-10-09T00:57:39Z,42.805,6.029,13.2937,4.59964,2471.957,2017-10-09T02:59:03Z
2017-10-09T00:59:14Z,42.805,6.029,13.2937,4.59968,2471.919,2017-10-09T03:00:38Z
2017-10-09T01:00:49Z,42.805,6.029,13.2940,4.59967,2471.934,2017-10-09T03:02:13Z
2017-10-09T01:02:24Z,42.805,6.029,13.2940,4.59966,2471.919,2017-10-09T03:03:48Z
2017-10-09T01:03:59Z,42.805,6.029,13.2939,4.59965,2471.957,2017-10-09T03:05:23Z
2017-10-09T01:05:33Z,42.805,6.029,13.2940,4.59968,2471.942,2017-10-09T03:06:58Z
2017-10-09T01:07:08Z,42.805,6.029,13.2940,4.59967,2471.957,2017-10-09T03:08:32Z
2017-10-09T01:08:43Z,42.805,6.029,13.2939,4.59967,2471.957,2017-10-09T03:10:07Z
2017-10-09T01:10:18Z,42.805,6.029,13.2940,4.59967,2471.964,2017-10-09T03:11:42Z
2017-10-09T01:11:53Z,42.805,6.029,13.2938,4.59967,2471.979,2017-10-09T03:13:17Z
2017-10-09T01:13:28Z,42.805,6.029,13.2937,4.59967,2471.919,2017-10-09T03:14:52Z
2017-10-09T01:15:02Z,42.805,6.029,13.2935,4.59972,2471.934,2017-10-09T03:16:27Z
2017-10-09T01:16:37Z,42.805,6.029,13.2939,4.59966,2471.934,2017-10-09T03:18:01Z
2017-10-09T01:18:12Z,42.805,6.029,13.2940,4.59965,2471.957,2017-10-09T03:19:36Z
2017-10-09T01:19:47Z,42.805,6.029,13.2940,4.59967,2471.942,2017-10-09T03:21:11Z
2017-10-09T01:21:22Z,42.805,6.029,13.2943,4.59965,2471.957,2017-10-09T03:22:46Z
2017-10-09T01:22:57Z,42.805,6.029,13.2942,4.59965,2471.934,2017-10-09T03:24:21Z
2017-10-09T01:24:31Z,42.805,6.029,13.2939,4.59968,2471.919,2017-10-09T03:25:56Z
2017-10-09T01:26:06Z,42.805,6.029,13.2939,4.59965,2471.957,2017-10-09T03:27:30Z
2017-10-09T01:27:41Z,42.805,6.029,13.2936,4.59966,2471.979,2017-10-09T03:29:05Z
2017-10-09T01:29:16Z,42.805,6.029,13.2939,4.59967,2471.979,2017-10-09T03:30:40Z
2017-10-09T01:30:51Z,42.805,6.029,13.2940,4.59967,2471.934,2017-10-09T03:32:15Z
2017-10-09T01:32:26Z,42.805,6.029,13.2940,4.59967,2471.964,2017-10-09T03:33:50Z
2017-10-09T01:34:00Z,42.805,6.029,13.2939,4.59964,2471.919,2017-10-09T03:35:24Z
2017-10-09T01:35:35Z,42.805,6.029,13.2939,4.59964,2471.934,2017-10-09T03:36:59Z
2017-10-09T01:37:10Z,42.805,6.029,13.2939,4.59966,2471.919,2017-10-09T03:38:34Z
2017-10-09T01:38:45Z,42.805,6.029,13.2940,4.59964,2471.934,2017-10-09T03:40:09Z
2017-10-09T01:40:20Z,42.805,6.029,13.2939,4.59965,2471.942,2017-10-09T03:41:44Z
2017-10-09T01:41:55Z,42.805,6.029,13.2940,4.59968,2471.942,2017-10-09T03:43:19Z
2017-10-09T01:43:29Z,42.805,6.029,13.2935,4.59964,2471.934,2017-10-09T03:44:53Z
2017-10-09T01:45:04Z,42.805,6.029,13.2934,4.59967,2471.912,2017-10-09T03:46:28Z
2017-10-09T01:46:39Z,42.805,6.029,13.2939,4.59964,2471.897,2017-10-09T03:48:03Z
2017-10-09T01:48:14Z,42.805,6.029,13.2941,4.59965,2471.919,2017-10-09T03:49:38Z
2017-10-09T01:49:49Z,42.805,6.029,13.2939,4.59966,2471.957,2017-10-09T03:51:13Z
2017-10-09T01:51:24Z,42.805,6.029,13.2938,4.59964,2471.934,2017-10-09T03:52:48Z
2017-10-09T01:52:58Z,42.805,6.029,13.2936,4.59963,2471.919,2017-10-09T03:54:22Z
2017-10-09T01:54:33Z,42.805,6.029,13.2934,4.59964,2471.934,2017-10-09T03:55:57Z
2017-10-09T01:56:08Z,42.805,6.029,13.2939,4.59964,2471.897,2017-10-09T03:57:32Z
2017-10-09T01:57:43Z,42.805,6.029,13.2939,4.59966,2471.912,2017-10-09T03:59:07Z
2017-10-09T01:59:18Z,42.805,6.029,13.2936,4.59967,2471.934,2017-10-09T04:00:42Z
2017-10-09T02:00:53Z,42.805,6.029,13.2935,4.59964,2471.912,2017-10-09T04:02:17Z
2017-10-09T02:02:27Z,42.805,6.029,13.2941,4.59967,2471.957,2017-10-09T04:03:51Z
2017-10-09T02:04:02Z,42.805,6.029,13.2937,4.59964,2471.919,2017-10-09T04:05:26Z
2017-10-09T02:05:37Z,42.805,6.029,13.2941,4.59964,2471.934,2017-10-09T04:07:01Z
2017-10-09T02:07:12Z,42.805,6.029,13.2933,4.59964,2471.919,2017-10-09T04:08:36Z
2017-10-09T02:08:47Z,42.805,6.029,13.2937,4.59964,2471.934,2017-10-09T04:10:11Z
2017-10-09T02:10:22Z,42.805,6.029,13.2932,4.59964,2471.934,2017-10-09T04:11:46Z
2017-10-09T02:11:56Z,42.805,6.029,13.2936,4.59964,2471.897,2017-10-09T04:13:20Z
2017-10-09T02:13:31Z,42.805,6.029,13.2935,4.59967,2471.934,2017-10-09T04:14:55Z
2017-10-09T02:15:06Z,42.805,6.029,13.2936,4.59965,2471.912,2017-10-09T04:16:30Z
2017-10-09T02:16:41Z,42.805,6.029,13.2933,4.59964,2471.934,2017-10-09T04:18:05Z
2017-10-09T02:18:16Z,42.805,6.029,13.2937,4.59962,2471.927,2017-10-09T04:19:40Z
2017-10-09T02:19:50Z,42.805,6.029,13.2934,4.59962,2471.912,2017-10-09T04:21:15Z
2017-10-09T02:21:25Z,42.805,6.029,13.2933,4.59961,2471.897,2017-10-09T04:22:49Z
2017-10-09T02:23:00Z,42.805,6.029,13.2936,4.59964,2471.919,2017-10-09T04:24:24Z
2017-10-09T02:24:35Z,42.805,6.029,13.2935,4.59962,2471.957,2017-10-09T04:25:59Z
2017-10-09T02:26:10Z,42.805,6.029,13.2936,4.59963,2471.889,2017-10-09T04:27:34Z
2017-10-09T02:27:45Z,42.805,6.029,13.2933,4.59962,2471.934,2017-10-09T04:29:09Z
2017-10-09T02:29:19Z,42.805,6.029,13.2937,4.59962,2471.919,2017-10-09T04:30:44Z
2017-10-09T02:30:54Z,42.805,6.029,13.2932,4.59964,2471.912,2017-10-09T04:32:18Z
2017-10-09T02:32:29Z,42.805,6.029,13.2939,4.59964,2471.889,2017-10-09T04:33:53Z
2017-10-09T02:34:04Z,42.805,6.029,13.2937,4.59964,2471.934,2017-10-09T04:35:28Z
2017-10-09T02:35:39Z,42.805,6.029,13.2935,4.59962,2471.897,2017-10-09T04:37:03Z
2017-10-09T02:37:14Z,42.805,6.029,13.2935,4.59964,2471.897,2017-10-09T04:38:38Z
2017-10-09T02:38:48Z,42.805,6.029,13.2935,4.59964,2471.874,2017-10-09T04:40:13Z
2017-10-09T02:40:23Z,42.805,6.029,13.2935,4.59966,2471.919,2017-10-09T04:41:47Z
2017-10-09T02:41:58Z,42.805,6.029,13.2941,4.59964,2471.934,2017-10-09T04:43:22Z
2017-10-09T02:43:33Z,42.805,6.029,13.2934,4.59964,2471.897,2017-10-09T04:44:57Z
2017-10-09T02:45:08Z,42.805,6.029,13.2941,4.59965,2471.934,2017-10-09T04:46:32Z
2017-10-09T02:46:43Z,42.805,6.029,13.2937,4.59967,2471.912,2017-10-09T04:48:07Z
2017-10-09T02:48:17Z,42.805,6.029,13.2942,4.59967,2471.912,2017-10-09T04:49:42Z
2017-10-09T02:49:52Z,42.805,6.029,13.2942,4.59965,2471.912,2017-10-09T04:51:16Z
2017-10-09T02:51:27Z,42.805,6.029,13.2950,4.59970,2471.912,2017-10-09T04:52:51Z
2017-10-09T02:53:02Z,42.805,6.029,13.2935,4.59965,2471.874,2017-10-09T04:54:26Z
2017-10-09T02:54:37Z,42.805,6.029,13.2955,4.59970,2471.912,2017-10-09T04:56:01Z
2017-10-09T02:56:12Z,42.805,6.029,13.2939,4.59965,2471.897,2017-10-09T04:57:36Z
2017-10-09T02:57:46Z,42.805,6.029,13.2935,4.59964,2471.912,2017-10-09T04:59:11Z
2017-10-09T02:59:21Z,42.805,6.029,13.2938,4.59966,2471.874,2017-10-09T05:00:45Z
2017-10-09T03:00:56Z,42.805,6.029,13.2934,4.59961,2471.897,2017-10-09T05:02:20Z
2017-10-09T03:02:31Z,42.805,6.029,13.2938,4.59961,2471.897,2017-10-09T05:03:55Z
2017-10-09T03:04:06Z,42.805,6.029,13.2933,4.59959,2471.912,2017-10-09T05:05:30Z
2017-10-09T03:05:41Z,42.805,6.029,13.2933,4.59967,2471.912,2017-10-09T05:07:05Z
2017-10-09T03:07:15Z,42.805,6.029,13.2935,4.59966,2471.912,2017-10-09T05:08:40Z
2017-10-09T03:08:50Z,42.805,6.029,13.2933,4.59961,2471.912,2017-10-09T05:10:14Z
2017-10-09T03:10:25Z,42.805,6.029,13.2938,4.59962,2471.912,2017-10-09T05:11:49Z
2017-10-09T03:12:00Z,42.805,6.029,13.2935,4.59964,2471.889,2017-10-09T05:13:24Z
2017-10-09T03:13:35Z,42.805,6.029,13.2931,4.59961,2471.897,2017-10-09T05:14:59Z
2017-10-09T03:15:10Z,42.805,6.029,13.2935,4.59964,2471.874,2017-10-09T05:16:34Z
2017-10-09T03:16:44Z,42.805,6.029,13.2934,4.59960,2471.889,2017-10-09T05:18:09Z
2017-10-09T03:18:19Z,42.805,6.029,13.2935,4.59961,2471.874,2017-10-09T05:19:43Z
2017-10-09T03:19:54Z,42.805,6.029,13.2939,4.59960,2471.874,2017-10-09T05:21:18Z
2017-10-09T03:21:29Z,42.805,6.029,13.2934,4.59958,2471.889,2017-10-09T05:22:53Z
2017-10-09T03:23:04Z,42.805,6.029,13.2934,4.59959,2471.912,2017-10-09T05:24:28Z
2017-10-09T03:24:39Z,42.805,6.029,13.2937,4.59959,2471.889,2017-10-09T05:26:03Z
2017-10-09T03:26:13Z,42.805,6.029,13.2935,4.59959,2471.897,2017-10-09T05:27:37Z
2017-10-09T03:27:48Z,42.805,6.029,13.2936,4.59961,2471.897,2017-10-09T05:29:12Z
2017-10-09T03:29:23Z,42.805,6.029,13.2934,4.59961,2471.889,2017-10-09T05:30:47Z
2017-10-09T03:30:58Z,42.805,6.029,13.2935,4.59959,2471.912,2017-10-09T05:32:22Z
2017-10-09T03:32:33Z,42.805,6.029,13.2935,4.59960,2471.912,2017-10-09T05:33:57Z
2017-10-09T03:34:08Z,42.805,6.029,13.2935,4.59961,2471.912,2017-10-09T05:35:32Z
2017-10-09T03:35:42Z,42.805,6.029,13.2935,4.59960,2471.889,2017-10-09T05:37:06Z
2017-10-09T03:37:17Z,42.805,6.029,13.2934,4.59961,2471.897,2017-10-09T05:38:41Z
2017-10-09T03:38:52Z,42.805,6.029,13.2937,4.59961,2471.897,2017-10-09T05:40:16Z
2017-10-09T03:40:27Z,42.805,6.029,13.2936,4.59960,2471.912,2017-10-09T05:41:51Z
2017-10-09T03:42:02Z,42.805,6.029,13.2939,4.59960,2471.874,2017-10-09T05:43:26Z
2017-10-09T03:43:37Z,42.805,6.029,13.2942,4.59960,2471.912,2017-10-09T05:45:01Z
2017-10-09T03:45:11Z,42.805,6.029,13.2938,4.59961,2471.897,2017-10-09T05:46:35Z
2017-10-09T03:46:46Z,42.805,6.029,13.2938,4.59961,2471.889,2017-10-09T05:48:10Z
2017-10-09T03:48:21Z,42.805,6.029,13.2934,4.59963,2471.874,2017-10-09T05:49:45Z
2017-10-09T03:49:56Z,42.805,6.029,13.2935,4.59961,2471.912,2017-10-09T05:51:20Z
2017-10-09T03:51:31Z,42.805,6.029,13.2931,4.59959,2471.912,2017-10-09T05:52:55Z
2017-10-09T03:53:06Z,42.805,6.029,13.2934,4.59960,2471.897,2017-10-09T05:54:30Z
2017-10-09T03:54:40Z,42.805,6.029,13.2940,4.59961,2471.912,2017-10-09T05:56:04Z
2017-10-09T03:56:15Z,42.805,6.029,13.2935,4.59963,2471.889,2017-10-09T05:57:39Z
2017-10-09T03:57:50Z,42.805,6.029,13.2935,4.59961,2471.889,2017-10-09T05:59:14Z
2017-10-09T03:59:25Z,42.805,6.029,13.2935,4.59962,2471.874,2017-10-09T06:00:49Z
2017-10-09T04:01:00Z,42.805,6.029,13.2940,4.59964,2471.912,2017-10-09T06:02:24Z
2017-10-09T04:02:35Z,42.805,6.029,13.2936,4.59961,2471.874,2017-10-09T06:03:59Z
2017-10-09T04:04:09Z,42.805,6.029,13.2941,4.59964,2471.897,2017-10-09T06:05:33Z
2017-10-09T04:05:44Z,42.805,6.029,13.2962,4.59968,2471.912,2017-10-09T06:07:08Z
2017-10-09T04:07:19Z,42.805,6.029,13.2933,4.59962,2471.889,2017-10-09T06:08:43Z
2017-10-09T04:08:54Z,42.805,6.029,13.2938,4.59961,2471.912,2017-10-09T06:10:18Z
2017-10-09T04:10:29Z,42.805,6.029,13.2936,4.59962,2471.897,2017-10-09T06:11:53Z
2017-10-09T04:12:03Z,42.805,6.029,13.2940,4.59962,2471.874,2017-10-09T06:13:28Z
2017-10-09T04:13:38Z,42.805,6.029,13.2935,4.59962,2471.874,2017-10-09T06:15:02Z
2017-10-09T04:15:13Z,42.805,6.029,13.2939,4.59960,2471.874,2017-10-09T06:16:37Z
2017-10-09T04:16:48Z,42.805,6.029,13.2940,4.59962,2471.912,2017-10-09T06:18:12Z
2017-10-09T04:18:23Z,42.805,6.029,13.2939,4.59962,2471.874,2017-10-09T06:19:47Z
2017-10-09T04:19:58Z,42.805,6.029,13.2935,4.59963,2471.889,2017-10-09T06:21:22Z
2017-10-09T04:21:32Z,42.805,6.029,13.2935,4.59960,2471.897,2017-10-09T06:22:57Z
2017-10-09T04:23:07Z,42.805,6.029,13.2934,4.59959,2471.852,2017-10-09T06:24:31Z
2017-10-09T04:24:42Z,42.805,6.029,13.2937,4.59959,2471.874,2017-10-09T06:26:06Z
2017-10-09T04:26:17Z,42.805,6.029,13.2935,4.59961,2471.889,2017-10-09T06:27:41Z
2017-10-09T04:27:52Z,42.805,6.029,13.2939,4.59961,2471.874,2017-10-09T06:29:16Z
2017-10-09T04:29:27Z,42.805,6.029,13.2935,4.59961,2471.897,2017-10-09T06:30:51Z
2017-10-09T04:31:01Z,42.805,6.029,13.2941,4.59966,2471.912,2017-10-09T06:32:26Z
2017-10-09T04:32:36Z,42.805,6.029,13.2945,4.59972,2471.874,2017-10-09T06:34:00Z
2017-10-09T04:34:11Z,42.805,6.029,13.2943,4.59963,2471.874,2017-10-09T06:35:35Z
2017-10-09T04:35:46Z,42.805,6.029,13.2934,4.59962,2471.912,2017-10-09T06:37:10Z
2017-10-09T04:37:21Z,42.805,6.029,13.2937,4.59961,2471.889,2017-10-09T06:38:45Z
2017-10-09T04:38:56Z,42.805,6.029,13.2940,4.59961,2471.889,2017-10-09T06:40:20Z
2017-10-09T04:40:30Z,42.805,6.029,13.2933,4.59960,2471.889,2017-10-09T06:41:55Z
2017-10-09T04:42:05Z,42.805,6.029,13.2937,4.59963,2471.874,2017-10-09T06:43:29Z
2017-10-09T04:43:40Z,42.805,6.029,13.2936,4.59961,2471.889,2017-10-09T06:45:04Z
2017-10-09T04:45:15Z,42.805,6.029,13.2933,4.59959,2471.889,2017-10-09T06:46:39Z
2017-10-09T04:46:50Z,42.805,6.029,13.2936,4.59961,2471.889,2017-10-09T06:48:14Z
2017-10-09T04:48:25Z,42.805,6.029,13.2934,4.59960,2471.874,2017-10-09T06:49:49Z
2017-10-09T04:49:59Z,42.805,6.029,13.2936,4.59960,2471.912,2017-10-09T06:51:24Z
2017-10-09T04:51:34Z,42.805,6.029,13.2935,4.59960,2471.912,2017-10-09T06:52:58Z
2017-10-09T04:53:09Z,42.805,6.029,13.2934,4.59962,2471.889,2017-10-09T06:54:33Z
2017-10-09T04:54:44Z,42.805,6.029,13.2943,4.59963,2471.912,2017-10-09T06:56:08Z
2017-10-09T04:56:19Z,42.805,6.029,13.2938,4.59961,2471.889,2017-10-09T06:57:43Z
2017-10-09T04:57:54Z,42.805,6.029,13.2939,4.59961,2471.889,2017-10-09T06:59:18Z
2017-10-09T04:59:28Z,42.805,6.029,13.2958,4.59977,2471.874,2017-10-09T07:00:53Z
2017-10-09T05:01:03Z,42.805,6.029,13.2948,4.59961,2471.912,2017-10-09T07:02:27Z
2017-10-09T05:02:38Z,42.805,6.029,13.2942,4.59977,2471.897,2017-10-09T07:04:02Z
2017-10-09T05:04:13Z,42.805,6.029,13.2944,4.59989,2471.919,2017-10-09T07:05:37Z
2017-10-09T05:05:48Z,42.805,6.029,13.2937,4.59963,2471.897,2017-10-09T07:07:12Z
2017-10-09T05:07:23Z,42.805,6.029,13.2937,4.59964,2471.934,2017-10-09T07:08:47Z
2017-10-09T05:08:57Z,42.805,6.029,13.2943,4.59970,2471.919,2017-10-09T07:10:22Z
2017-10-09T05:10:32Z,42.805,6.029,13.2935,4.59961,2471.912,2017-10-09T07:11:56Z
2017-10-09T05:12:07Z,42.805,6.029,13.2942,4.59961,2471.912,2017-10-09T07:13:31Z
2017-10-09T05:13:42Z,42.805,6.029,13.2940,4.59961,2471.934,2017-10-09T07:15:06Z
2017-10-09T05:15:17Z,42.805,6.029,13.2938,4.59966,2471.919,2017-10-09T07:16:41Z
2017-10-09T05:16:52Z,42.805,6.029,13.2935,4.59963,2471.919,2017-10-09T07:18:16Z
2017-10-09T05:18:26Z,42.805,6.029,13.2940,4.59971,2471.934,2017-10-09T07:19:51Z
2017-10-09T05:20:01Z,42.805,6.029,13.2946,4.59981,2471.889,2017-10-09T07:21:25Z
2017-10-09T05:21:36Z,42.805,6.029,13.2950,4.59970,2471.934,2017-10-09T07:23:00Z
2017-10-09T05:23:11Z,42.805,6.029,13.2954,4.59973,2471.934,2017-10-09T07:24:35Z
2017-10-09T05:24:46Z,42.805,6.029,13.2944,4.59972,2471.934,2017-10-09T07:26:10Z
2017-10-09T05:26:21Z,42.805,6.029,13.2943,4.59963,2471.897,2017-10-09T07:27:45Z
2017-10-09T05:27:55Z,42.805,6.029,13.2938,4.59960,2471.919,2017-10-09T07:29:20Z
2017-10-09T05:29:30Z,42.805,6.029,13.2936,4.59968,2471.897,2017-10-09T07:30:54Z
2017-10-09T05:31:05Z,42.805,6.029,13.2943,4.59967,2471.957,2017-10-09T07:32:29Z
2017-10-09T05:32:40Z,42.805,6.029,13.2935,4.59963,2471.934,2017-10-09T07:34:04Z
2017-10-09T05:34:15Z,42.805,6.029,13.2943,4.59973,2471.934,2017-10-09T07:35:39Z
2017-10-09T05:35:50Z,42.805,6.029,13.2948,4.59970,2471.934,2017-10-09T07:37:14Z
2017-10-09T05:37:24Z,42.805,6.029,13.2935,4.59965,2471.942,2017-10-09T07:38:48Z
2017-10-09T05:38:59Z,42.805,6.029,13.2933,4.59961,2471.919,2017-10-09T07:40:23Z
2017-10-09T05:40:34Z,42.805,6.029,13.2937,4.59964,2471.934,2017-10-09T07:41:58Z
2017-10-09T05:42:09Z,42.805,6.029,13.2940,4.59963,2471.957,2017-10-09T07:43:33Z
2017-10-09T05:43:44Z,42.805,6.029,13.2935,4.59967,2471.979,2017-10-09T07:45:08Z
2017-10-09T05:45:19Z,42.805,6.029,13.2935,4.59959,2471.919,2017-10-09T07:46:43Z
2017-10-09T05:46:53Z,42.805,6.029,13.2937,4.59964,2471.942,2017-10-09T07:48:18Z
2017-10-09T05:48:28Z,42.805,6.029,13.2970,4.59967,2471.957,2017-10-09T07:49:52Z
2017-10-09T05:50:03Z,42.805,6.029,13.2942,4.59961,2471.957,2017-10-09T07:51:27Z
2017-10-09T05:51:38Z,42.805,6.029,13.2939,4.59981,2471.942,2017-10-09T07:53:02Z
2017-10-09T05:53:13Z,42.805,6.029,13.2945,4.59969,2471.979,2017-10-09T07:54:37Z
2017-10-09T05:54:48Z,42.805,6.029,13.2940,4.59965,2471.979,2017-10-09T07:56:12Z
2017-10-09T05:56:22Z,42.805,6.029,13.2936,4.59962,2471.957,2017-10-09T07:57:46Z
2017-10-09T05:57:57Z,42.805,6.029,13.2936,4.59961,2471.919,2017-10-09T07:59:21Z
2017-10-09T05:59:32Z,42.805,6.029,13.2940,4.59965,2471.957,2017-10-09T08:00:56Z
2017-10-09T06:01:07Z,42.805,6.029,13.2936,4.59961,2471.979,2017-10-09T08:02:31Z
2017-10-09T06:02:42Z,42.805,6.029,13.2945,4.59982,2471.957,2017-10-09T08:04:06Z
2017-10-09T06:04:16Z,42.805,6.029,13.2931,4.59967,2471.957,2017-10-09T08:05:41Z
2017-10-09T06:05:51Z,42.805,6.029,13.2941,4.59967,2471.957,2017-10-09T08:07:15Z
2017-10-09T06:07:26Z,42.805,6.029,13.2952,4.59984,2471.949,2017-10-09T08:08:50Z
2017-10-09T06:09:01Z,42.805,6.029,13.2933,4.59965,2471.957,2017-10-09T08:10:25Z
2017-10-09T06:10:36Z,42.805,6.029,13.2940,4.59970,2471.979,2017-10-09T08:12:00Z
2017-10-09T06:12:11Z,42.805,6.029,13.2935,4.59960,2471.979,2017-10-09T08:13:35Z
2017-10-09T06:13:45Z,42.805,6.029,13.2939,4.59962,2471.979,2017-10-09T08:15:10Z
2017-10-09T06:15:20Z,42.805,6.029,13.2934,4.59960,2471.979,2017-10-09T08:16:44Z
2017-10-09T06:16:55Z,42.805,6.029,13.2950,4.59980,2471.964,2017-10-09T08:18:19Z
2017-10-09T06:18:30Z,42.805,6.029,13.2947,4.59977,2471.987,2017-10-09T08:19:54Z
2017-10-09T06:20:05Z,42.805,6.029,13.2950,4.60003,2471.979,2017-10-09T08:21:29Z
2017-10-09T06:21:40Z,42.805,6.029,13.2950,4.59994,2471.964,2017-10-09T08:23:04Z
2017-10-09T06:23:14Z,42.805,6.029,13.2938,4.59968,2472.002,2017-10-09T08:24:39Z
2017-10-09T06:24:49Z,42.805,6.029,13.2940,4.59973,2471.964,2017-10-09T08:26:13Z
2017-10-09T06:26:24Z,42.805,6.029,13.2939,4.59964,2471.942,2017-10-09T08:27:48Z
2017-10-09T06:27:59Z,42.805,6.029,13.2940,4.59961,2472.002,2017-10-09T08:29:23Z
2017-10-09T06:29:34Z,42.805,6.029,13.2937,4.59963,2471.979,2017-10-09T08:30:58Z
2017-10-09T06:31:09Z,42.805,6.029,13.2940,4.59959,2472.002,2017-10-09T08:32:33Z
2017-10-09T06:32:43Z,42.805,6.029,13.2937,4.59968,2471.979,2017-10-09T08:34:08Z
2017-10-09T06:34:18Z,42.805,6.029,13.2941,4.59995,2471.979,2017-10-09T08:35:42Z
2017-10-09T06:35:53Z,42.805,6.029,13.2942,4.59990,2472.002,2017-10-09T08:37:17Z
2017-10-09T06:37:28Z,42.805,6.029,13.2944,4.59969,2472.01,2017-10-09T08:38:52Z
2017-10-09T06:39:03Z,42.805,6.029,13.2937,4.59981,2471.987,2017-10-09T08:40:27Z
2017-10-09T06:40:38Z,42.805,6.029,13.2935,4.59968,2472.024,2017-10-09T08:42:02Z
2017-10-09T06:42:12Z,42.805,6.029,13.2935,4.59962,2472.002,2017-10-09T08:43:37Z
2017-10-09T06:43:47Z,42.805,6.029,13.2936,4.59967,2472.002,2017-10-09T08:45:11Z
2017-10-09T06:45:22Z,42.805,6.029,13.2944,4.59965,2472.01,2017-10-09T08:46:46Z
2017-10-09T06:46:57Z,42.805,6.029,13.2947,4.59984,2472.024,2017-10-09T08:48:21Z
2017-10-09T06:48:32Z,42.805,6.029,13.2952,4.59992,2472.01,2017-10-09T08:49:56Z
2017-10-09T06:50:07Z,42.805,6.029,13.2945,4.59998,2472.01,2017-10-09T08:51:31Z
2017-10-09T06:51:41Z,42.805,6.029,13.2951,4.59986,2472.01,2017-10-09T08:53:06Z
2017-10-09T06:53:16Z,42.805,6.029,13.2936,4.59961,2471.987,2017-10-09T08:54:40Z
2017-10-09T06:54:51Z,42.805,6.029,13.2935,4.59963,2472.01,2017-10-09T08:56:15Z
2017-10-09T06:56:26Z,42.805,6.029,13.2943,4.59978,2472.047,2017-10-09T08:57:50Z
2017-10-09T06:58:01Z,42.805,6.029,13.2933,4.59962,2472.024,2017-10-09T08:59:25Z
2017-10-09T06:59:36Z,42.805,6.029,13.2942,4.59978,2472.032,2017-10-09T09:01:00Z
2017-10-09T07:01:10Z,42.805,6.029,13.2949,4.59981,2472.032,2017-10-09T09:02:35Z
2017-10-09T07:02:45Z,42.805,6.029,13.2932,4.59965,2472.024,2017-10-09T09:04:09Z
2017-10-09T07:04:20Z,42.805,6.029,13.2940,4.59979,2472.047,2017-10-09T09:05:44Z
2017-10-09T07:05:55Z,42.805,6.029,13.2942,4.59997,2472.032,2017-10-09T09:07:19Z
2017-10-09T07:07:30Z,42.805,6.029,13.2952,4.59990,2472.055,2017-10-09T09:08:54Z
2017-10-09T07:09:05Z,42.805,6.029,13.2951,4.59983,2472.069,2017-10-09T09:10:29Z
2017-10-09T07:10:39Z,42.805,6.029,13.2949,4.59989,2472.047,2017-10-09T09:12:04Z
2017-10-09T07:12:14Z,42.805,6.029,13.2941,4.59982,2472.047,2017-10-09T09:13:38Z
2017-10-09T07:13:49Z,42.805,6.029,13.2957,4.59995,2472.069,2017-10-09T09:15:13Z
2017-10-09T07:15:24Z,42.805,6.029,13.2946,4.60001,2472.047,2017-10-09T09:16:48Z
2017-10-09T07:16:59Z,42.805,6.029,13.2941,4.59967,2472.047,2017-10-09T09:18:23Z
2017-10-09T07:18:34Z,42.805,6.029,13.2945,4.59972,2472.069,2017-10-09T09:19:58Z
2017-10-09T07:20:08Z,42.805,6.029,13.2939,4.59973,2472.055,2017-10-09T09:21:33Z
2017-10-09T07:21:43Z,42.805,6.029,13.2943,4.59974,2472.084,2017-10-09T09:23:07Z
2017-10-09T07:23:18Z,42.805,6.029,13.2943,4.59970,2472.032,2017-10-09T09:24:42Z
2017-10-09T07:24:53Z,42.805,6.029,13.2940,4.59964,2472.047,2017-10-09T09:26:17Z
2017-10-09T07:26:28Z,42.805,6.029,13.2940,4.59964,2472.047,2017-10-09T09:27:52Z
2017-10-09T07:28:03Z,42.805,6.029,13.2935,4.59984,2472.069,2017-10-09T09:29:27Z
2017-10-09T07:29:37Z,42.805,6.029,13.2948,4.59998,2472.069,2017-10-09T09:31:01Z
2017-10-09T07:31:09Z,42.805,6.029,13.2954,4.59987,2472.055,2017-10-09T09:32:33Z
2017-10-09T07:32:44Z,42.805,6.029,13.2951,4.59987,2472.032,2017-10-09T09:34:08Z
2017-10-09T07:34:19Z,42.805,6.029,13.2948,4.60010,2472.069,2017-10-09T09:35:43Z
2017-10-09T07:35:53Z,42.805,6.029,13.2948,4.59973,2472.077,2017-10-09T09:37:18Z
2017-10-09T07:37:28Z,42.805,6.029,13.2940,4.59990,2472.069,2017-10-09T09:38:52Z
2017-10-09T07:39:03Z,42.805,6.029,13.2964,4.59992,2472.069,2017-10-09T09:40:27Z
2017-10-09T07:40:38Z,42.805,6.029,13.2953,4.59996,2472.092,2017-10-09T09:42:02Z
2017-10-09T07:42:13Z,42.805,6.029,13.2943,4.59972,2472.115,2017-10-09T09:43:37Z
2017-10-09T07:43:48Z,42.805,6.029,13.2950,4.59992,2472.077,2017-10-09T09:45:12Z
2017-10-09T07:45:22Z,42.805,6.029,13.2933,4.59984,2472.055,2017-10-09T09:46:47Z